Location: Ariel
(45.9570°N, 122.5700°W)
Time: 04:28:21
(UTC-08:00)

UNISAT 6 - Visible Passes

Search period start: 18 November 2019 00:00
Search period end: 28 November 2019 00:00
Orbit: 607 x 689 km, 97.7° (Epoch: 17 November)

Date Brightness Start Highest point End Pass type
(mag) Time Alt. Az. Time Alt. Az. Time Alt. Az.
20 Nov ? 06:17:30 10° ENE 06:18:41 11° ENE 06:19:53 10° NE visible
21 Nov ? 06:41:14 10° ESE 06:44:18 19° ENE 06:47:26 10° NNE visible
24 Nov ? 06:23:42 10° E 06:25:46 13° ENE 06:27:53 10° NNE visible
25 Nov ? 06:48:00 10° ESE 06:51:25 22° ENE 06:54:55 10° NNE visible
